This is the latest recevied weather packets stored in our database for station/object PERPET. If no packets are shown the sender has not sent any weather packets the latest 10 day(s).
| Time | Temp. | Humidity | Pressure | Rain* | Wind** | Luminosity | Snow |
|---|---|---|---|---|---|---|---|
| 1777588050 | 11.67° C | - | 1018.6 hPa | 0 mm | - | - | - |
| 1777586549 | 11.67° C | - | 1018.8 hPa | 0 mm | - | - | - |
| 1777586249 | 12.22° C | - | 1018.8 hPa | 0 mm | - | - | - |
| 1777585049 | 12.22° C | - | 1018.9 hPa | 0 mm | - | - | - |
| 1777584449 | 11.67° C | - | 1019 hPa | 0 mm | - | - | - |
| 1777583849 | 11.67° C | - | 1019.1 hPa | 0 mm | - | - | - |
| 1777583249 | 11.67° C | - | 1019.1 hPa | 0 mm | - | - | - |
| 1777582949 | 11.67° C | - | 1019.1 hPa | 0 mm | - | - | - |
| 1777582649 | 11.11° C | - | 1019.1 hPa | 0 mm | - | - | - |
| 1777581449 | 11.67° C | - | 1019.2 hPa | 0 mm | - | - | - |
| 1777580900 | 11.11° C | - | 1019.2 hPa | 0 mm | - | - | - |
| 1777580849 | 11.11° C | - | 1019.2 hPa | 0 mm | - | - | - |
| 1777580249 | 11.11° C | - | 1019.3 hPa | 0 mm | - | - | - |
| 1777579649 | 11.11° C | - | 1019.5 hPa | 0 mm | - | - | - |
| 1777579349 | 11.11° C | - | 1019.6 hPa | 0 mm | - | - | - |
| 1777579049 | 11.11° C | - | 1019.5 hPa | 0 mm | - | - | - |
| 1777578449 | 11.11° C | - | 1019.5 hPa | 0 mm | - | - | - |
| 1777577849 | 11.11° C | - | 1019.5 hPa | 0 mm | - | - | - |
| 1777577249 | 11.11° C | - | 1019.5 hPa | 0 mm | - | - | - |
| 1777576649 | 11.11° C | - | 1019.5 hPa | 0 mm | - | - | - |
| 1777576049 | 10.56° C | - | 1019.6 hPa | 0 mm | - | - | - |
| 1777575749 | 10.56° C | - | 1019.6 hPa | 0 mm | - | - | - |
| 1777575449 | 10.56° C | - | 1019.6 hPa | 0 mm | - | - | - |
| 1777574849 | 10.56° C | - | 1019.6 hPa | 0 mm | - | - | - |
| 1777574248 | 10.56° C | - | 1019.7 hPa | 0 mm | - | - | - |
* Rain latest hour (hover to see other rain measurements)
** Current wind speed in m/s (hover to see current wind gust speed)